Theta_e
348 347 347 348 349 349 349 350 350 349 349 349 349 349 348 348 347 347 348 348 349 349 348 348 348 347 347 347 348 349 348 349 347 341 338 339 338 340 341 342 343 343 344 344 344 343 343 344 343 342 342 341 340 340 341 341 341 341 340 340 339 339 339 339 340 340 340 340 340 341 340 340 340 340 341 343 343 344 344 344 344 343 344 343 342
346 346 346 348 348 348 349 350 350 349 349 349 350 350 349 349 348 347 347 348 348 348 349 348 348 347 346 347 347 348 348 349 347 342 340 341 340 339 340 341 342 343 343 345 345 345 345 344 342 340 340 340 339 339 340 339 340 339 339 339 338 338 339 339 339 340 340 341 341 341 341 340 341 342 343 344 344 344 343 344 344 343 343 342 342
346 346 348 349 349 349 350 351 350 350 350 349 350 350 350 350 349 348 347 348 347 348 348 349 348 348 348 347 347 348 348 349 348 342 340 342 341 341 341 340 341 341 343 344 345 345 345 345 343 342 342 341 341 342 342 342 341 340 341 341 340 341 342 342 341 341 342 342 342 342 342 342 342 343 344 345 344 344 344 344 344 343 343 342 342
349 348 349 350 350 350 350 350 350 350 350 350 351 350 350 350 349 348 348 348 348 348 348 348 348 349 349 348 347 348 348 348 348 343 338 341 342 341 342 342 342 342 343 344 345 345 345 344 344 344 344 344 344 345 345 345 344 343 343 344 344 345 345 345 344 343 344 344 344 344 343 343 344 344 344 344 344 344 343 344 343 344 343 343 342
350 350 350 351 350 349 349 349 350 351 350 350 351 351 350 350 349 348 348 348 348 348 347 347 348 348 349 349 348 347 347 348 348 344 338 338 341 341 341 342 342 342 343 344 344 344 345 345 345 345 345 345 346 345 346 346 346 345 344 345 345 346 346 346 346 345 345 345 344 344 344 343 344 344 344 344 344 344 344 344 344 344 343 343 342
350 351 350 350 349 349 348 349 350 351 351 351 351 350 350 351 350 348 348 348 347 347 347 347 348 348 349 349 348 348 348 348 347 346 342 339 339 339 340 340 342 342 342 342 342 343 344 344 344 344 345 345 345 345 346 347 347 347 346 346 345 345 345 345 346 345 345 345 345 345 344 344 344 344 344 344 344 345 344 344 344 344 343 343 342
349 350 349 349 349 349 349 350 350 351 351 351 351 351 350 350 350 348 347 347 347 347 347 348 348 348 349 349 349 348 348 348 347 348 346 344 340 338 339 340 340 340 340 341 341 341 342 343 344 345 345 344 344 345 347 347 347 348 347 347 347 346 345 345 345 345 346 345 345 345 345 344 345 345 344 344 345 345 344 344 344 343 342 343 341
350 349 348 348 349 350 351 350 351 352 351 351 350 350 349 348 349 349 347 346 347 347 347 347 348 347 347 348 348 349 348 348 348 348 348 347 343 339 339 340 339 339 339 339 339 339 340 341 342 343 343 344 345 346 346 347 347 348 347 347 348 347 347 346 346 345 345 346 346 345 345 345 345 344 345 345 345 344 344 343 343 343 342 342 341
350 349 349 349 350 352 352 352 353 353 351 351 351 350 349 348 349 348 347 346 346 347 347 347 347 346 347 346 347 347 348 348 348 348 348 347 346 344 342 342 342 341 340 339 340 340 339 339 340 340 341 342 343 344 344 345 346 347 347 347 347 347 347 346 346 346 345 346 346 345 345 345 345 345 345 345 345 344 343 343 343 343 342 341 341
349 349 349 349 350 351 352 353 353 353 352 352 352 351 349 348 348 348 348 346 346 346 347 347 347 346 346 346 346 347 348 348 347 347 347 347 346 346 345 345 345 345 343 342 343 343 342 340 339 337 337 337 339 340 341 341 342 343 345 346 346 346 346 346 346 346 346 346 346 345 345 345 345 345 345 345 345 344 343 344 343 343 342 342 340
349 349 349 350 351 352 353 354 353 353 353 353 353 351 350 349 348 348 348 347 346 347 347 347 347 346 347 346 346 347 347 347 347 347 347 347 347 346 347 347 347 348 347 346 346 346 345 344 342 341 338 336 335 335 337 337 337 339 340 343 345 346 346 346 346 345 345 346 346 346 345 345 345 344 344 344 344 344 344 343 342 342 341 341 340
349 349 350 352 351 352 354 354 353 354 353 353 353 352 351 349 347 347 347 347 347 347 347 346 347 347 346 347 347 347 348 348 348 348 348 347 347 346 346 347 347 347 348 348 347 347 347 347 346 346 344 342 338 336 336 336 336 336 336 338 341 344 346 345 346 347 346 346 346 346 345 344 344 343 343 343 343 344 344 342 341 341 340 339 339
350 351 351 352 352 352 354 353 353 354 354 354 353 353 352 350 347 347 347 347 347 347 346 347 347 346 346 346 346 347 348 348 349 348 348 348 348 347 347 347 347 347 347 348 348 347 348 347 347 346 347 346 344 342 342 342 341 339 339 338 338 340 342 342 344 345 345 345 345 344 344 343 343 343 343 342 342 343 344 342 341 340 339 339 339
351 351 351 352 352 352 353 353 353 354 354 354 354 353 352 350 349 348 348 350 347 345 346 346 347 346 345 346 346 347 347 348 349 348 348 349 348 348 347 347 347 347 346 346 346 346 346 346 346 345 345 346 346 346 345 344 345 344 343 342 341 340 339 339 340 341 342 343 343 341 340 340 341 341 341 340 340 340 340 339 338 338 338 339 339
351 352 352 352 352 352 353 353 353 354 354 353 353 353 352 352 350 349 349 350 347 345 344 345 345 346 345 348 348 349 350 348 347 348 348 349 349 349 348 348 348 348 347 346 345 345 344 344 345 345 345 345 345 345 344 343 343 345 345 344 344 343 342 343 342 341 341 340 339 337 336 336 336 337 337 336 337 336 335 333 332 332 333 333 336
351 352 353 352 352 353 353 353 353 354 353 353 353 351 351 352 351 350 350 349 346 344 345 345 345 345 346 349 347 348 355 352 346 346 349 350 350 349 350 348 348 348 347 347 345 344 344 344 344 344 345 345 346 345 344 342 341 342 343 343 343 343 343 344 344 344 342 340 337 333 331 331 330 330 330 329 330 330 330 329 327 326 327 326 329
350 351 351 352 352 352 352 353 354 355 353 352 353 351 351 352 351 350 349 348 346 344 345 344 345 345 346 351 349 350 360 354 345 347 348 348 350 350 349 349 348 348 348 347 346 345 344 344 344 344 345 344 345 345 345 343 341 340 338 339 339 340 341 341 342 341 339 337 334 331 329 328 326 325 324 324 323 324 323 323 323 323 323 322 321
352 350 350 352 353 352 351 353 354 354 352 352 353 352 351 352 351 350 349 348 347 345 345 345 346 345 344 348 348 351 355 351 347 350 347 344 347 348 349 349 348 348 347 347 346 345 344 344 344 343 344 344 344 344 344 345 344 340 338 337 338 339 340 341 341 339 336 333 330 329 328 327 326 325 324 323 322 322 321 320 321 320 319 319 319
354 353 352 352 353 353 351 352 354 354 352 351 353 353 352 352 352 351 349 349 348 347 345 345 345 346 346 345 345 345 346 345 347 349 350 349 345 343 347 348 348 348 347 346 345 345 344 343 343 342 343 342 343 343 344 344 345 344 342 340 340 340 341 341 342 340 336 333 332 330 330 328 328 327 326 326 325 325 324 323 322 321 321 320 319
355 355 353 353 353 352 352 354 355 355 354 351 352 353 352 353 353 352 350 349 350 349 346 345 344 344 345 345 345 344 343 344 345 345 350 355 350 346 344 343 346 346 345 344 343 344 344 342 342 342 342 342 342 342 342 343 345 345 344 343 342 342 342 343 343 342 341 339 338 338 337 336 336 334 333 331 330 329 329 328 327 326 325 325 324
353 354 355 355 353 352 353 355 356 356 355 352 352 354 354 353 353 352 350 350 351 351 348 345 343 342 344 344 344 343 343 344 343 344 347 350 353 351 344 341 342 341 342 341 341 343 342 342 343 342 342 341 341 342 341 343 344 344 343 342 343 343 343 344 343 343 343 342 342 343 343 343 343 342 341 340 338 337 336 336 335 334 333 332 331
350 351 353 354 353 354 355 356 356 356 356 353 352 354 355 354 353 353 352 352 352 352 351 348 343 342 344 345 342 341 343 344 342 345 346 344 348 348 343 343 344 341 340 340 340 342 341 341 342 342 342 341 341 341 341 342 342 342 341 341 342 342 343 343 343 343 343 342 343 344 344 345 345 345 344 344 344 343 343 342 342 342 341 341 340
349 349 350 352 353 354 356 356 355 356 356 354 354 355 355 354 354 354 353 353 352 352 353 350 344 345 346 344 342 341 343 345 341 343 344 343 346 347 344 344 344 342 341 341 340 340 341 341 341 340 341 340 340 340 340 341 341 341 341 341 341 341 341 341 342 343 342 343 343 344 345 345 345 346 345 345 345 345 345 346 346 346 346 346 346
348 349 349 350 353 355 356 356 355 355 355 355 355 355 355 354 354 354 355 355 353 352 354 351 346 347 347 345 344 344 344 345 344 345 346 345 346 345 343 343 343 342 340 340 340 340 340 340 339 340 340 339 339 340 339 340 340 340 340 341 340 340 341 342 342 343 342 343 343 344 345 345 345 346 346 346 345 346 347 347 348 348 349 349 349
347 348 346 347 352 354 355 355 354 353 354 355 356 354 355 355 354 354 356 356 354 353 352 351 348 347 347 346 346 345 344 344 344 346 348 348 346 343 343 344 343 343 342 340 339 339 339 340 340 340 340 340 340 340 341 340 340 340 340 341 341 341 342 342 343 344 343 344 344 344 344 345 345 346 346 347 348 349 349 350 351 352 352 352 351
347 346 344 344 348 351 353 354 353 352 353 354 355 355 355 356 356 355 355 356 357 356 352 350 349 348 348 348 347 347 346 346 348 350 351 350 348 345 343 344 343 341 341 342 343 343 341 341 343 343 343 344 344 343 343 342 341 340 339 340 341 341 342 343 344 345 345 346 346 346 347 347 348 350 351 352 353 354 354 354 354 355 354 353 353
344 345 344 343 345 348 351 353 353 353 352 352 353 355 355 356 357 356 355 355 356 357 353 351 349 348 348 348 349 350 350 350 351 353 352 347 347 346 342 344 346 342 340 343 342 343 345 345 344 345 345 344 344 343 342 341 341 341 341 343 345 345 346 349 350 351 350 351 350 352 352 352 353 354 355 356 356 356 356 356 356 356 355 355 353
342 344 346 345 344 347 349 351 353 353 353 352 352 354 355 356 356 355 355 354 355 354 353 352 351 348 349 350 351 352 353 353 352 353 351 345 343 343 341 343 345 343 348 355 346 340 346 346 343 345 344 342 344 344 343 343 344 345 347 348 350 351 354 355 355 354 353 353 353 353 353 355 356 356 357 358 358 358 358 358 357 355 355 354 353
339 341 345 345 344 345 347 349 351 353 354 353 352 353 355 356 355 355 355 355 355 354 353 353 352 350 349 350 352 354 354 355 353 353 352 348 346 345 345 345 342 339 348 360 354 343 342 343 341 344 343 343 346 347 346 347 347 348 350 350 352 354 356 356 354 354 354 353 352 353 355 356 357 358 358 359 359 359 359 356 353 352 352 351 351
340 340 343 346 345 344 346 348 349 351 353 353 352 354 355 356 356 355 356 356 355 355 354 353 353 353 350 351 353 355 356 357 355 354 352 350 349 348 349 350 348 343 340 347 354 346 337 341 344 344 345 346 349 348 347 347 349 351 352 353 355 356 356 356 355 355 355 354 354 356 357 358 359 360 360 360 361 359 355 350 348 349 349 350 349
342 342 343 345 346 346 345 347 348 350 352 353 352 355 356 356 356 355 355 355 355 355 356 355 354 354 353 353 353 354 355 357 356 356 354 352 351 351 352 352 352 352 345 342 350 348 343 346 349 350 352 351 351 348 346 346 350 353 354 354 356 356 356 356 356 357 356 356 358 358 359 360 360 360 360 361 360 354 349 348 348 349 350 350 349
342 344 344 345 346 347 346 346 348 349 352 353 353 355 357 357 356 355 355 356 355 355 356 356 355 355 354 354 354 354 355 357 356 356 355 354 355 354 354 354 352 355 352 348 349 350 351 353 353 355 356 353 350 349 348 348 349 352 353 354 355 356 356 357 357 357 358 358 359 359 360 360 360 360 361 360 355 349 348 349 349 349 348 347 343
343 345 345 345 346 347 347 346 347 349 351 352 353 354 357 357 357 355 355 356 356 355 356 357 356 355 354 354 354 354 354 356 356 357 356 357 358 356 356 355 354 356 356 353 352 352 354 356 355 356 355 354 351 350 351 351 351 352 351 351 354 355 356 357 357 358 359 359 359 360 360 359 360 360 359 354 349 348 349 348 347 346 343 340 338
345 345 346 345 346 347 347 346 347 348 349 350 352 353 356 357 357 356 355 356 357 357 357 357 355 354 355 355 355 354 354 355 356 357 357 357 357 357 357 356 356 357 356 355 354 353 354 356 357 357 355 355 353 352 354 355 354 354 351 350 353 355 357 358 358 359 359 359 360 360 359 360 358 356 352 350 348 348 348 346 344 341 338 338 337
345 346 346 345 346 346 347 346 346 347 348 349 351 353 354 356 356 356 356 355 355 356 357 357 357 355 355 355 354 353 353 355 355 356 357 357 357 356 357 357 356 357 357 357 356 355 355 357 357 356 355 355 354 354 355 356 357 356 354 351 353 356 359 359 359 359 359 358 359 359 359 357 353 351 349 349 349 348 345 342 338 337 337 336 335
345 344 345 344 345 346 346 347 348 348 349 350 351 352 353 355 355 356 356 356 355 355 355 354 355 353 352 353 352 351 351 352 353 355 356 356 356 356 356 356 356 356 356 357 357 357 357 357 357 356 355 355 355 355 356 357 357 356 354 353 354 358 359 360 360 360 358 357 359 357 355 351 349 350 350 349 347 344 341 338 336 337 336 335 334
345 344 343 343 344 346 346 348 348 348 349 350 352 352 352 353 355 354 355 355 354 355 354 352 352 350 348 348 348 348 350 350 350 352 354 355 355 355 355 356 357 357 356 356 357 357 357 357 357 357 356 356 356 356 357 358 358 357 355 352 355 360 359 360 360 358 356 358 357 352 348 348 349 350 348 345 342 338 336 336 337 336 335 335 334
344 344 344 344 344 345 346 346 347 347 348 350 351 351 353 353 354 354 354 354 354 355 355 353 351 348 348 347 347 347 349 350 349 350 352 354 355 355 356 356 356 357 357 356 357 357 357 357 357 357 357 357 357 357 357 358 359 359 356 354 356 361 361 360 358 355 357 358 353 347 347 349 348 346 342 339 336 334 336 337 336 335 335 334 333
345 345 346 346 345 346 346 345 346 346 346 348 348 350 351 353 354 355 355 354 354 354 355 355 354 352 350 348 347 347 349 350 350 348 351 353 356 356 356 356 357 357 358 357 357 357 357 357 358 358 358 358 358 358 357 358 359 359 357 356 359 361 362 359 354 354 360 357 348 346 348 346 343 340 337 334 334 336 337 336 335 335 335 333 333
345 346 347 348 348 347 347 346 346 346 346 347 348 349 350 352 353 354 355 354 355 354 354 355 355 355 354 351 349 349 349 350 349 348 349 351 353 354 354 356 357 357 357 358 358 357 357 357 358 358 358 358 358 357 357 358 358 357 356 356 360 362 362 358 352 355 360 357 348 346 347 343 339 337 334 333 335 336 336 335 334 334 333 333 332
346 346 347 347 348 348 349 348 348 348 348 348 349 349 351 351 353 354 355 355 355 355 354 354 355 356 355 354 351 348 347 347 348 348 348 348 351 352 351 352 354 355 357 358 358 358 357 357 358 358 358 358 357 358 357 357 357 356 355 356 359 362 361 357 353 355 360 358 350 346 345 342 338 335 334 334 336 336 335 334 333 333 334 332 328
347 347 346 347 348 349 350 349 350 350 351 351 350 351 351 352 352 353 354 354 355 355 355 355 354 354 354 353 351 348 346 347 346 347 347 347 350 350 350 351 354 356 357 357 358 358 358 357 358 357 357 358 357 357 357 356 356 356 354 355 359 362 361 356 352 355 359 359 352 346 345 341 335 333 334 335 336 335 333 333 333 333 330 325 320
348 348 348 348 348 349 350 351 351 352 352 352 352 352 352 352 352 353 354 355 355 356 356 355 355 353 352 351 350 349 349 348 347 345 345 346 348 350 351 352 354 356 357 358 357 358 357 358 357 358 357 358 357 357 356 356 355 354 353 355 359 362 360 355 352 353 358 359 353 346 345 341 334 332 335 336 334 333 332 333 332 328 322 318 317
350 349 349 349 349 350 351 351 352 352 353 353 352 353 353 353 353 353 353 354 355 355 356 355 355 354 352 350 349 348 349 348 347 345 345 346 348 350 352 352 353 355 357 357 357 357 358 358 357 357 357 357 356 356 355 355 354 353 354 354 356 358 356 354 352 352 357 360 352 346 346 341 333 332 335 334 333 332 332 332 327 320 316 316 317
351 351 351 351 351 351 352 352 352 353 352 353 353 353 354 353 354 354 354 354 354 354 355 355 355 354 353 352 350 349 347 347 347 349 349 348 348 350 352 352 353 353 354 356 357 358 358 358 358 358 357 357 356 355 354 355 354 354 354 354 354 354 353 352 352 353 359 359 351 346 345 340 332 333 335 334 331 332 332 328 320 316 316 316 316
352 352 352 352 352 352 352 353 353 352 353 353 352 353 353 353 353 354 354 354 354 354 354 354 354 354 353 353 353 351 349 348 348 349 349 349 350 350 351 352 352 351 352 353 355 356 356 357 358 358 356 356 356 354 353 354 355 355 356 356 355 355 353 352 353 357 360 355 348 345 344 338 332 333 335 334 331 331 330 323 317 316 316 315 315
353 354 353 354 353 353 354 353 353 353 353 353 353 354 353 353 354 354 354 354 355 354 355 354 354 354 354 354 354 353 351 350 349 348 349 350 351 351 352 353 352 351 350 351 352 353 354 354 355 354 353 354 353 353 353 354 356 358 359 359 358 356 355 354 355 359 357 352 347 344 341 337 331 332 335 334 331 331 328 321 317 317 316 315 315
354 354 354 354 354 354 354 354 354 354 354 353 354 354 353 353 354 354 355 355 355 355 354 355 355 354 355 355 354 354 353 352 351 350 351 352 353 354 354 353 353 352 350 349 349 352 354 353 352 351 350 351 351 352 353 355 357 360 360 360 359 358 357 355 356 358 355 350 346 342 338 335 331 331 335 334 329 330 329 323 319 318 317 316 316
354 354 354 354 355 355 355 355 355 355 355 354 354 354 354 354 354 355 355 355 355 355 355 355 355 354 354 354 354 354 354 353 352 352 352 354 354 355 354 354 354 353 352 349 349 350 351 351 351 350 349 348 350 353 354 355 358 359 359 358 359 359 357 356 356 357 353 349 345 341 336 334 331 330 334 335 330 330 331 327 322 319 318 317 317
355 355 354 355 354 355 355 355 355 355 355 355 354 354 354 354 354 355 355 355 355 355 355 355 355 355 355 354 354 354 354 353 353 352 353 354 355 355 355 354 355 354 352 351 351 351 350 350 350 349 349 348 350 354 355 357 358 359 359 359 359 359 357 356 357 356 351 347 345 341 336 334 331 328 330 334 333 330 331 329 324 320 318 318 318
355 355 355 355 355 356 355 356 355 356 355 355 354 355 354 354 354 354 354 354 354 354 355 354 355 355 355 354 354 354 354 354 353 353 354 354 354 354 354 355 355 354 353 351 352 352 352 351 350 350 350 350 352 355 356 358 358 358 357 359 360 359 358 358 358 355 350 346 344 341 336 334 332 327 325 331 335 332 331 330 325 320 318 319 319
Wind_Speed
9 9 8 8 7 7 6 6 5 5 5 5 4 4 5 5 5 6 7 8 8 7 6 5 5 7 8 8 6 3 3 3 3 5 6 4 5 5 6 5 5 4 3 3 2 1 1 1 1 1 1 1 1 0 1 1 1 1 2 2 2 3 3 4 5 5 5 6 6 6 6 7 7 7 8 9 9 10 10 11 11 11 12 12 12
8 8 8 7 7 7 6 5 5 5 5 5 4 4 4 4 5 6 7 7 7 7 5 5 5 6 6 7 6 3 3 3 2 4 5 4 4 4 4 4 4 4 3 3 2 1 1 1 1 1 1 2 2 2 2 2 2 2 3 3 3 4 4 5 5 5 6 6 6 7 7 7 8 8 9 9 10 11 11 11 11 12 12 12 13
8 8 8 7 7 7 6 5 5 6 6 5 5 4 4 4 5 6 7 7 7 7 5 5 5 4 4 5 4 3 3 2 1 2 5 5 4 4 4 4 4 4 4 3 3 2 2 2 2 2 3 3 3 3 3 3 4 4 4 4 4 5 5 6 6 6 6 7 7 8 8 8 9 9 9 10 11 12 12 12 12 12 12 13 13
9 9 8 7 7 7 7 6 6 7 6 5 5 5 5 4 5 7 7 7 7 7 6 6 5 3 3 4 3 3 3 2 2 1 4 5 5 5 5 5 5 5 5 5 4 4 4 3 3 3 4 4 4 4 4 4 5 5 5 5 5 5 6 7 7 8 8 8 8 9 9 10 10 10 10 11 12 12 12 12 12 12 12 13 13
10 10 9 9 8 8 8 8 7 7 6 5 5 5 5 5 6 7 7 8 8 7 7 6 5 4 4 3 4 3 3 3 2 1 2 4 5 6 6 6 6 6 7 6 6 6 5 5 5 5 5 5 5 6 6 6 6 7 6 7 7 7 8 8 9 9 9 10 10 10 10 11 11 11 11 11 12 12 12 12 12 12 12 13 13
11 10 10 10 9 9 9 8 8 7 6 5 4 5 5 5 6 7 8 9 9 8 8 6 5 5 5 4 5 5 4 4 3 3 2 3 5 6 6 6 6 7 7 7 7 7 7 6 6 7 7 7 7 7 8 8 8 8 8 8 8 9 9 10 10 11 11 11 11 11 12 12 12 12 12 12 12 12 12 12 12 13 13 13 12
11 10 11 11 10 9 9 8 8 6 5 4 4 5 5 5 6 7 9 10 10 9 8 6 6 6 6 5 6 7 6 5 5 5 4 4 4 5 5 5 6 6 7 7 8 8 8 8 7 8 8 9 9 9 9 9 9 9 10 10 10 10 11 11 12 12 12 11 12 12 12 12 12 12 12 12 12 12 12 13 13 13 13 13 12
11 11 11 11 10 8 8 8 8 6 5 5 4 4 5 5 6 8 9 10 10 9 8 7 6 6 6 6 6 8 7 6 6 6 6 6 5 5 5 5 5 6 6 7 7 7 8 8 9 9 10 10 10 10 10 10 10 10 11 11 11 11 12 12 12 12 12 12 12 12 12 12 12 12 12 12 12 13 13 13 13 13 13 12 12
12 11 11 11 10 9 9 9 7 6 5 4 3 4 5 5 6 8 10 10 10 9 8 7 7 6 6 7 8 9 9 8 7 7 8 8 8 6 6 6 6 6 6 6 6 6 7 8 9 10 10 11 11 11 11 11 10 11 11 11 11 12 12 12 13 13 13 13 13 13 13 13 12 12 12 12 12 13 13 12 12 12 12 12 12
13 12 12 11 11 10 9 8 7 6 6 5 4 4 5 6 7 8 9 9 10 9 8 7 7 6 5 6 8 10 10 9 9 8 9 10 9 8 6 6 6 7 7 6 6 6 7 7 8 10 10 11 11 11 12 12 12 12 12 12 12 12 12 13 13 13 13 13 14 14 14 13 13 13 12 12 12 13 12 13 13 13 13 13 12
13 13 12 12 11 10 9 8 7 7 6 5 4 5 6 6 7 8 8 8 9 9 8 8 8 7 6 6 7 9 9 9 9 9 10 10 10 10 8 7 7 7 7 7 6 7 7 7 8 9 10 10 11 11 11 12 12 12 12 12 12 12 13 13 13 14 13 14 14 14 14 14 13 13 13 13 12 13 13 14 14 13 13 13 12
13 13 12 12 11 10 9 8 7 7 6 4 4 5 6 7 7 7 8 8 8 8 8 8 8 8 7 7 7 8 8 8 9 9 10 10 10 11 10 9 8 8 7 7 7 8 8 8 8 9 10 10 10 11 11 11 11 12 12 12 13 13 13 13 13 14 14 14 14 14 15 15 14 14 14 14 14 14 15 15 14 14 14 13 13
13 13 12 12 11 10 10 9 8 7 6 4 4 5 6 7 7 8 7 7 7 8 9 9 8 7 7 7 8 8 8 8 9 9 9 10 10 11 11 10 9 8 7 8 8 8 8 8 8 9 9 9 10 10 11 11 11 11 11 12 12 13 13 13 13 14 14 14 14 14 15 15 15 15 15 15 15 15 16 16 16 16 15 14 14
14 13 13 12 11 11 11 10 9 7 6 5 5 6 8 8 8 8 7 5 4 6 10 10 7 6 4 3 5 7 8 9 10 10 11 11 10 11 12 12 11 9 8 8 8 8 8 8 8 8 9 9 9 10 10 10 10 10 11 11 12 12 12 13 13 14 14 14 14 15 15 15 16 16 16 16 16 15 16 16 16 16 15 15 15
14 13 12 12 12 11 11 10 9 8 7 7 7 7 9 9 9 7 5 3 2 3 8 10 7 6 4 2 1 2 4 8 11 12 11 11 11 12 12 13 13 11 10 10 8 8 8 8 9 9 10 10 10 10 10 10 10 10 11 11 11 11 12 13 14 14 15 15 15 15 16 16 16 16 16 16 16 16 17 17 16 16 15 15 15
15 13 12 12 11 11 11 10 9 9 8 8 8 9 9 10 9 7 5 4 3 4 7 7 8 8 4 1 1 2 2 5 8 10 10 11 12 13 13 14 13 13 14 13 11 10 9 10 11 11 11 11 11 11 11 11 11 11 11 12 12 12 12 13 14 14 15 15 15 15 15 16 16 16 16 16 17 17 17 18 17 17 17 17 17
16 15 13 12 11 11 11 10 10 10 9 8 8 9 10 10 9 7 6 4 4 6 8 7 7 9 5 3 2 1 2 3 4 7 9 10 12 13 14 15 15 15 15 16 15 14 13 13 13 13 13 13 13 13 12 12 11 11 11 11 12 12 12 12 13 14 14 14 15 15 15 15 15 16 16 16 17 17 18 18 18 18 18 18 18
17 16 15 13 12 11 11 11 10 10 10 8 8 9 10 10 9 8 7 5 4 5 8 7 5 8 9 6 2 2 3 1 1 3 6 9 12 14 16 16 16 16 17 17 17 17 16 15 15 15 14 14 14 14 13 12 11 11 11 11 11 11 12 12 12 13 13 13 14 14 15 15 15 16 16 16 17 18 18 19 19 19 19 19 19
18 17 16 14 13 12 11 10 10 10 10 9 9 9 10 10 9 9 7 6 5 5 7 7 5 6 9 9 8 6 4 3 3 1 3 5 8 12 15 16 17 18 19 19 18 18 17 16 16 15 15 14 14 14 14 13 12 12 11 10 10 11 11 12 12 12 13 13 13 14 14 15 16 16 17 17 18 18 19 20 20 20 21 21 21
19 18 17 15 14 13 12 11 10 10 10 10 10 9 9 9 9 10 8 7 6 6 6 7 6 6 8 10 10 8 6 6 5 3 2 1 4 6 9 12 15 18 19 19 19 19 18 17 16 16 15 15 15 15 15 14 14 13 12 11 11 11 11 12 13 13 13 13 14 14 15 16 17 17 18 18 19 20 20 21 21 22 22 22 23
19 18 17 16 15 14 13 12 11 10 11 11 10 10 9 9 10 9 9 8 7 6 7 7 8 7 8 10 9 7 5 4 5 3 2 1 3 3 4 6 10 15 17 17 18 18 17 17 17 17 17 17 15 15 15 15 14 14 12 12 12 12 13 13 14 15 15 15 15 16 17 17 18 19 20 20 21 21 22 22 23 23 24 24 25
20 19 18 17 16 15 14 13 12 11 11 12 11 11 10 10 10 9 9 9 8 7 7 7 8 8 8 9 8 6 4 2 4 4 1 1 2 3 4 4 7 11 13 14 15 16 17 17 17 17 17 16 15 15 15 15 14 14 13 13 13 14 14 15 16 16 17 17 18 18 19 20 20 21 22 22 23 23 24 24 25 25 25 26 26
20 19 19 18 17 17 15 14 13 12 12 12 12 11 10 10 9 9 9 9 9 8 7 7 8 8 8 9 8 7 5 3 4 4 3 2 2 4 6 5 7 10 8 9 12 14 15 17 17 16 15 15 15 15 15 15 15 15 14 14 14 15 15 16 17 17 18 19 19 20 21 22 23 23 23 24 24 25 26 26 27 27 27 28 28
21 21 19 19 19 18 17 15 14 14 14 13 12 11 10 10 10 10 10 9 9 10 9 9 9 8 8 9 8 8 7 5 5 4 5 5 4 5 8 6 6 7 6 7 9 10 11 13 13 13 13 14 14 15 16 17 17 16 16 15 15 16 17 18 19 20 20 21 21 22 23 24 24 25 25 26 26 26 27 27 28 28 29 28 28
23 23 21 21 20 19 18 17 16 15 15 14 13 12 11 10 11 11 11 10 10 11 11 11 10 9 9 8 8 8 8 7 7 7 8 8 5 5 6 5 4 5 5 6 7 6 7 8 9 10 12 14 15 17 18 19 19 18 18 17 17 18 19 20 21 22 23 24 24 25 25 26 26 26 26 25 25 26 26 27 27 28 29 29 29
25 23 22 21 21 20 19 18 17 16 16 16 15 13 12 12 12 13 13 12 11 11 12 13 12 11 10 9 8 7 6 6 7 9 11 11 8 6 4 4 5 4 3 3 5 5 5 6 6 8 10 12 14 16 17 18 18 18 18 19 20 20 21 21 22 23 24 24 24 24 24 24 24 23 22 22 22 23 24 25 26 27 28 28 27
25 23 22 22 22 21 20 19 19 17 16 17 17 15 14 13 13 14 14 13 12 12 13 13 14 13 12 10 8 6 5 5 6 9 10 10 9 8 5 3 4 4 4 3 4 5 4 4 4 5 7 9 10 12 14 15 15 15 16 17 18 18 18 18 19 20 20 21 21 20 20 19 19 19 19 19 20 22 22 22 23 23 22 22 21
26 24 23 23 22 22 21 21 20 19 18 18 19 18 16 15 14 14 15 14 13 13 13 14 14 14 12 11 9 7 6 6 7 8 9 7 4 4 5 3 1 3 4 4 4 3 2 2 2 3 7 9 10 11 12 13 13 13 13 14 15 15 15 16 17 18 18 18 18 17 17 17 17 18 18 19 20 20 20 19 18 18 17 17 17
27 26 25 24 23 23 23 22 21 20 19 19 20 20 18 17 15 15 15 15 14 13 13 14 14 13 13 12 10 9 8 7 7 6 7 6 2 1 3 3 1 1 1 3 4 2 2 4 3 3 6 9 9 10 11 12 12 13 13 13 14 15 15 16 17 17 17 16 15 15 16 17 18 19 19 20 19 18 17 17 17 16 16 16 17
28 27 27 26 25 24 24 23 23 22 21 20 21 21 20 19 17 16 16 16 16 14 12 13 13 13 13 13 12 11 10 8 7 7 7 6 3 2 3 3 3 2 2 2 3 3 2 4 5 6 8 9 10 11 12 13 13 13 13 13 14 15 16 16 16 15 14 14 14 15 16 18 19 19 19 18 16 16 17 17 17 16 16 17 18
31 30 29 28 27 27 26 25 24 24 23 21 21 22 21 20 20 19 17 16 18 16 13 13 13 12 14 14 14 13 11 10 9 9 9 7 6 6 5 4 4 4 3 2 1 3 4 5 8 9 10 11 12 13 14 14 14 13 13 13 14 15 15 15 14 13 13 13 14 15 17 18 19 18 17 15 16 17 17 16 16 17 17 18 19
34 32 31 30 29 29 28 27 26 25 25 24 23 23 23 23 22 21 19 17 19 19 17 15 14 13 14 15 16 15 14 12 10 9 9 8 7 7 7 6 5 5 5 4 4 6 9 10 11 11 12 13 14 15 16 16 14 14 13 13 14 14 14 13 13 12 12 14 15 17 18 18 17 16 15 16 16 16 15 16 16 17 18 18 19
36 34 33 32 31 30 29 29 27 27 26 26 25 25 25 25 25 23 21 19 20 21 19 18 17 16 16 16 17 17 16 15 13 10 9 8 7 7 7 8 8 7 8 7 8 10 13 13 13 14 14 15 16 16 17 17 17 16 15 14 14 14 14 14 13 13 13 15 16 17 17 16 15 15 16 16 15 14 14 16 17 18 19 19 19
36 35 34 33 32 31 31 30 29 28 27 27 26 26 27 27 27 26 24 22 22 22 22 21 20 19 19 18 18 17 17 18 16 12 10 10 10 9 9 9 10 9 10 11 11 11 14 17 16 16 16 16 17 17 17 18 18 18 17 16 14 13 14 14 14 14 14 15 16 16 15 14 15 16 15 13 12 13 15 16 17 18 19 18 18
35 35 35 34 33 32 31 31 30 29 29 28 27 27 28 29 29 29 27 26 25 25 25 25 24 22 21 21 20 19 18 19 19 17 14 13 13 13 12 12 12 12 11 13 13 13 15 18 18 17 17 17 18 17 17 18 18 18 18 18 16 14 14 14 14 13 13 15 15 14 14 15 15 13 11 10 11 13 14 16 17 18 18 17 17
33 34 34 33 33 32 32 32 31 31 30 30 29 29 29 30 30 31 30 29 28 28 28 28 27 26 24 24 23 21 19 19 20 19 17 16 16 16 16 15 15 15 13 13 14 14 16 18 19 19 18 18 19 18 18 18 18 18 18 18 16 14 13 13 12 13 14 15 14 14 14 14 12 10 9 10 11 12 14 16 17 16 16 17 18
34 33 33 33 32 32 33 33 32 32 31 31 30 30 30 31 31 31 31 30 30 30 29 29 28 27 26 26 25 23 21 20 21 21 19 18 18 18 18 18 17 17 16 15 15 15 16 17 19 19 18 18 19 19 18 18 18 19 19 18 15 13 12 11 11 12 14 14 14 14 13 11 9 8 9 9 11 13 14 14 14 14 15 17 19
35 34 33 33 33 33 33 33 33 32 32 32 32 31 31 31 31 31 31 30 30 30 29 29 28 27 26 27 26 25 23 22 22 22 21 20 19 19 19 19 18 18 17 17 17 16 17 17 18 19 19 19 20 20 19 17 18 19 19 18 14 11 9 10 13 14 13 13 15 14 11 9 8 8 9 11 12 13 12 12 13 13 15 18 20
35 34 34 33 33 34 34 34 34 34 33 32 32 32 32 31 32 32 31 31 30 30 30 30 29 28 28 27 26 25 24 23 23 22 22 22 22 22 21 20 19 18 18 18 18 18 18 18 18 19 19 19 19 20 20 18 18 18 18 17 14 10 7 11 17 15 12 14 15 12 9 8 8 9 11 12 11 11 11 12 13 14 16 19 20
34 34 34 34 33 33 34 34 35 34 34 33 32 32 32 32 32 32 32 31 31 30 30 30 30 30 29 29 28 27 26 24 23 23 23 23 23 24 24 22 21 20 19 20 20 20 20 19 18 19 19 19 19 20 20 19 18 17 16 16 15 11 9 13 17 14 11 15 15 11 8 7 8 11 12 10 9 10 11 12 13 15 17 19 21
35 34 34 33 33 33 33 34 34 34 34 34 34 33 33 33 32 33 33 32 32 31 31 31 31 31 31 31 30 29 28 27 26 24 24 23 23 24 24 23 22 21 20 20 20 21 20 19 20 20 19 20 20 20 19 18 17 16 16 15 15 13 12 16 17 10 9 14 14 10 7 8 10 12 10 9 9 10 11 13 14 16 18 20 21
35 34 33 33 33 32 32 33 33 33 34 34 35 35 34 34 34 33 33 33 32 32 32 31 32 32 32 32 32 31 30 29 28 27 26 25 24 23 23 23 22 22 22 22 21 21 20 19 21 20 19 20 21 19 18 18 18 17 16 15 14 14 14 17 16 10 8 13 13 8 5 8 11 10 7 8 10 11 12 14 15 17 19 21 23
35 34 33 32 33 32 32 32 32 33 33 35 36 36 36 36 35 34 33 33 32 32 32 32 32 33 33 33 32 32 32 31 31 30 28 27 25 24 23 23 23 23 24 24 23 23 21 20 22 21 19 21 23 20 18 19 18 16 15 13 14 15 14 14 13 11 10 13 13 7 4 7 10 7 6 8 9 10 12 14 15 18 20 22 23
35 34 34 33 33 33 32 32 32 33 34 35 36 36 37 37 36 35 34 33 32 32 32 32 33 33 33 33 32 32 32 32 32 31 30 29 27 26 24 23 23 24 25 26 26 26 24 23 23 24 22 23 23 22 20 19 18 16 15 13 13 16 16 14 13 13 12 13 13 7 3 5 7 5 5 8 9 10 11 13 16 19 20 21 22
35 34 35 35 34 33 33 32 33 33 34 36 37 37 37 38 37 36 35 34 33 33 33 33 33 33 33 33 33 32 32 32 31 31 30 29 28 27 26 24 23 24 25 26 26 28 28 27 26 27 27 25 25 25 23 21 19 18 16 15 15 16 17 16 16 14 12 12 10 5 2 4 6 4 5 8 8 8 10 13 17 19 20 21 22
35 35 35 35 35 34 34 34 34 34 35 37 37 38 38 39 38 37 37 36 35 34 34 33 33 33 34 34 34 34 33 32 32 31 30 29 29 28 27 26 25 24 24 25 26 27 28 30 30 32 32 30 29 29 26 23 22 20 18 16 16 15 16 17 15 12 11 10 7 3 2 2 4 3 4 6 6 6 9 13 16 19 21 22 23
35 35 35 35 35 35 35 34 34 34 36 37 38 38 39 39 39 38 37 36 35 35 35 35 34 35 35 35 35 35 35 34 33 32 31 30 29 28 28 27 27 26 25 25 25 26 27 29 29 30 31 31 30 30 28 26 23 21 19 17 15 15 15 16 15 12 10 8 5 2 3 2 2 2 4 3 4 5 8 12 15 18 21 22 23
34 34 34 34 35 35 35 35 34 35 37 38 38 39 40 40 39 38 38 37 36 35 35 35 36 36 36 35 35 36 36 36 35 33 32 30 29 28 29 28 28 28 28 27 26 27 28 27 25 24 24 24 25 26 25 23 20 20 19 17 15 15 14 14 16 14 9 7 5 3 4 3 1 2 5 3 2 4 6 10 14 17 19 21 23
34 34 34 34 34 35 35 35 36 36 38 39 39 39 40 39 39 38 38 37 37 37 37 37 37 37 37 37 37 36 36 37 36 35 33 30 29 29 29 30 30 30 30 29 28 28 29 28 26 25 23 22 22 21 20 19 19 20 20 18 18 17 14 13 14 12 8 7 6 3 5 4 1 1 6 6 0 4 5 8 12 14 16 20 23
35 35 35 35 35 35 36 36 37 38 39 40 40 40 40 39 39 39 38 38 37 37 38 38 38 37 38 38 37 37 37 38 38 36 34 31 30 30 30 30 30 31 33 32 31 30 30 29 28 27 25 23 21 20 19 19 19 20 22 22 21 18 15 15 14 10 7 8 8 6 5 5 2 1 4 7 4 3 5 6 10 12 14 19 22
36 35 35 34 34 35 35 37 38 39 40 40 40 40 41 40 39 39 39 37 36 37 38 38 37 37 37 38 37 37 38 39 39 38 35 33 31 31 31 30 30 32 34 33 31 31 29 28 27 26 24 23 21 20 20 19 19 20 23 24 22 19 17 17 15 10 6 7 10 9 7 6 4 2 2 4 4 3 4 6 8 9 12 17 21
Wind_Direction
183 184 185 183 180 179 176 175 177 181 189 191 184 188 198 198 189 183 179 175 173 167 153 145 146 161 182 201 218 227 195 187 193 189 183 176 168 160 157 156 155 158 159 156 160 162 161 173 184 196 213 247 288 316 341 332 313 291 276 277 285 294 299 299 303 311 316 316 321 323 323 322 319 317 315 317 320 326 332 334 335 337 339 342 343
191 190 191 190 189 191 190 191 194 193 194 194 191 191 197 204 203 191 184 184 183 176 165 156 150 156 182 211 227 226 199 198 203 195 194 192 187 182 174 173 173 172 178 176 184 206 219 247 270 295 303 307 312 314 317 316 307 290 285 290 294 294 295 298 306 314 316 317 317 317 315 312 310 310 312 317 320 324 328 331 332 333 335 337 337
204 201 200 199 200 203 205 204 200 195 192 191 192 198 201 209 213 200 194 196 189 185 181 167 155 155 186 215 228 227 221 226 252 213 205 205 209 212 205 196 196 198 203 206 212 227 240 260 280 290 295 301 302 306 308 307 300 296 297 297 298 298 299 304 311 313 310 309 307 307 307 307 307 308 312 316 318 322 326 329 330 331 333 332 334
216 216 215 213 213 213 212 210 204 199 196 191 193 202 205 207 207 203 207 206 193 190 190 175 164 165 184 213 229 231 239 248 282 254 211 212 216 224 226 217 213 215 220 224 228 233 241 253 266 272 280 290 295 297 295 293 293 297 300 298 297 296 297 301 304 306 303 300 299 301 302 302 305 308 311 314 317 321 324 327 329 331 330 328 331
221 225 225 221 217 213 209 206 200 196 192 189 195 205 209 208 205 204 208 204 191 189 190 184 183 185 190 220 229 226 241 247 264 286 227 220 223 229 236 234 229 226 228 231 233 237 242 252 261 267 272 275 279 280 278 279 283 288 291 292 290 289 292 294 294 295 297 296 296 299 301 301 305 307 310 312 315 319 321 324 326 326 325 324 329
224 227 223 214 210 206 202 200 196 195 193 190 203 210 212 213 209 204 200 196 190 189 193 191 192 198 208 227 225 226 241 247 253 274 270 239 231 235 241 243 245 243 241 239 238 239 243 251 258 263 267 267 267 270 273 276 277 280 283 286 287 286 289 288 289 291 292 295 297 300 301 303 306 307 310 313 315 317 318 320 320 320 320 320 325
218 219 212 204 201 198 195 196 195 198 196 195 208 209 209 211 208 202 196 194 191 193 197 198 198 202 213 224 228 233 241 251 256 264 275 266 247 240 244 251 254 257 256 253 248 246 245 249 255 259 263 264 266 267 270 274 276 278 281 284 285 286 288 287 288 291 292 295 297 299 300 302 304 306 309 311 313 314 314 314 314 316 316 315 318
208 206 201 197 194 194 194 193 193 196 195 198 205 202 200 205 206 200 195 192 193 198 202 205 209 205 207 216 227 233 237 253 264 263 266 268 264 253 251 254 258 262 264 262 259 257 256 255 257 260 263 265 266 266 266 268 271 276 279 281 282 284 287 288 289 290 290 291 292 295 296 298 300 302 305 307 308 309 309 310 311 313 313 312 313
201 199 196 195 193 195 196 192 192 196 194 196 196 189 188 195 202 198 193 191 193 201 206 211 214 207 206 216 224 228 236 251 265 266 264 265 265 260 259 259 260 262 262 265 267 268 268 267 266 266 267 268 268 269 270 270 269 272 275 278 279 281 283 284 286 288 288 288 289 291 293 295 296 298 300 302 303 304 305 305 305 306 306 307 307
197 195 192 194 196 196 196 196 197 199 196 196 200 195 185 190 200 197 194 195 200 208 218 223 217 211 211 209 213 220 233 250 260 267 270 269 264 262 266 263 261 262 262 265 268 273 275 273 273 271 272 272 272 273 275 276 276 275 275 275 276 278 281 282 283 286 289 289 290 292 295 296 297 299 299 299 300 302 302 302 302 301 299 300 300
193 192 191 194 196 195 198 199 196 195 197 199 204 202 191 188 193 194 197 202 209 219 227 228 224 229 231 210 207 219 230 242 253 264 274 276 269 265 266 263 262 263 262 266 267 273 276 276 277 277 278 279 279 279 279 280 282 283 282 279 276 276 279 282 283 285 287 288 289 292 293 293 293 295 295 295 295 297 298 300 301 299 295 295 293
190 191 193 196 197 197 201 201 196 195 199 200 200 203 197 186 185 189 195 203 214 221 223 225 228 239 246 233 222 225 234 242 249 258 269 276 273 268 267 265 267 267 267 268 267 271 276 278 280 282 285 284 282 283 283 284 284 286 286 285 282 279 279 281 283 285 286 286 287 288 289 290 291 291 290 289 288 288 291 294 294 293 291 290 288
190 192 195 198 198 201 207 206 203 202 207 205 196 200 196 184 184 190 196 208 221 224 221 220 226 240 247 246 242 235 239 247 249 256 268 273 270 266 266 268 272 277 278 274 270 270 273 276 280 284 285 284 282 281 283 285 285 288 290 291 291 289 288 287 285 284 285 285 285 287 288 289 291 291 291 291 289 287 287 289 290 290 289 287 287
191 193 197 199 198 203 210 210 208 209 212 205 195 195 191 186 190 196 201 213 232 234 217 207 210 221 209 225 263 257 249 249 248 259 273 272 268 265 263 265 271 279 284 281 278 274 272 273 276 280 283 285 286 285 284 282 283 290 295 297 298 297 296 296 293 291 289 287 288 291 292 291 292 292 294 295 295 294 292 291 290 290 288 286 284
194 195 200 201 201 205 209 210 212 213 213 208 203 197 191 193 198 200 202 204 233 231 202 193 193 186 157 124 309 302 280 267 262 265 270 265 263 266 265 265 268 273 277 277 276 273 272 274 274 277 282 285 288 289 288 283 282 289 292 295 296 296 298 298 299 298 296 294 294 295 296 295 295 295 296 297 298 298 298 298 296 294 293 290 286
201 201 202 202 204 207 209 211 213 216 216 213 212 206 198 200 202 201 203 200 197 183 180 188 193 176 137 78 46 44 326 284 280 275 269 261 260 263 265 268 269 269 271 272 274 272 271 273 276 281 283 285 288 290 291 289 288 288 287 288 290 294 297 299 300 300 300 299 299 299 299 299 299 299 299 299 299 300 300 300 300 300 299 298 295
205 206 205 204 205 207 210 214 217 219 219 215 212 209 204 204 205 206 209 206 190 180 185 196 204 195 176 127 79 39 254 275 308 288 275 267 264 263 263 267 270 269 270 273 276 275 274 275 278 283 286 287 288 289 292 294 293 291 288 287 288 293 297 300 301 301 300 299 299 300 301 302 303 303 303 303 302 302 302 302 301 302 300 299 298
208 208 207 206 206 205 208 213 219 220 218 215 211 212 208 205 208 211 213 216 211 196 199 205 215 214 206 204 228 247 233 210 59 302 291 275 264 262 261 264 268 270 270 273 275 276 277 279 282 284 287 289 288 287 289 292 294 292 290 289 288 291 296 300 302 302 301 300 301 302 303 305 306 306 306 305 305 304 303 303 302 302 301 299 297
209 208 209 210 209 208 207 212 220 222 221 218 214 214 210 208 212 214 215 224 229 222 214 217 224 216 212 227 249 261 260 221 186 242 312 285 270 264 263 264 267 269 270 272 275 276 277 278 282 286 288 289 288 287 286 287 290 290 291 293 293 293 296 299 302 303 304 304 305 307 308 309 309 309 309 308 307 306 305 304 303 302 302 300 298
212 210 210 211 211 211 209 212 218 223 226 223 219 216 213 213 214 212 213 224 233 236 234 230 230 224 219 234 251 265 266 243 230 225 175 266 300 281 268 267 267 268 270 272 273 272 274 276 280 285 288 289 289 288 288 287 288 290 294 298 298 299 300 301 303 305 307 308 309 310 312 312 313 313 313 312 311 311 309 308 307 305 304 302 301
215 214 213 213 212 211 211 213 216 222 226 226 222 221 220 218 216 213 215 223 229 237 245 239 237 237 233 242 251 254 256 244 237 231 159 184 287 282 278 271 266 268 270 271 271 268 270 275 279 283 286 288 289 291 290 289 290 293 298 303 302 303 305 306 307 307 309 311 312 313 314 314 314 315 315 315 315 315 314 313 312 310 308 306 304
217 217 217 216 214 212 212 214 218 221 225 226 224 222 223 220 219 220 219 222 225 232 244 242 238 239 235 242 245 229 225 236 229 234 257 288 270 283 292 276 265 273 277 274 272 270 271 275 280 283 286 289 292 292 293 294 295 298 303 306 306 307 310 311 312 312 313 314 315 316 316 316 316 316 316 317 317 317 317 316 315 314 312 310 308
220 218 219 219 216 213 213 217 220 222 224 226 224 222 223 223 225 226 224 225 226 231 240 236 232 236 233 238 245 236 232 245 245 250 284 321 322 306 311 298 269 275 291 291 283 279 277 276 279 283 285 289 293 294 296 298 298 300 303 306 309 312 314 314 315 316 316 317 318 318 319 319 319 319 318 318 318 318 318 318 317 317 315 314 312
222 221 219 216 215 214 216 220 222 223 223 224 225 224 226 230 232 233 231 230 228 229 235 234 232 236 235 237 249 255 253 262 280 297 312 319 317 306 313 313 280 280 301 301 291 286 282 278 279 283 286 290 295 297 298 299 299 299 299 302 309 314 316 317 317 317 318 319 320 320 320 320 319 319 318 318 318 318 319 319 319 318 317 316 314
222 222 219 214 213 214 216 219 221 222 222 222 224 225 229 236 241 242 239 234 229 228 233 236 237 240 242 244 254 264 270 279 293 305 308 306 305 301 301 299 295 303 302 290 289 293 296 293 289 290 294 297 299 299 298 298 299 300 298 299 304 309 311 314 316 317 318 317 318 318 318 318 319 320 320 320 320 320 320 320 320 320 319 319 318
221 222 220 216 215 216 217 220 222 224 224 224 224 227 233 241 248 250 244 238 234 233 237 240 242 244 245 249 258 267 274 285 295 306 310 299 280 270 276 289 308 320 315 290 292 303 315 325 319 309 305 303 301 299 299 299 301 302 300 298 302 306 308 311 314 316 316 316 317 317 319 320 322 324 325 325 326 325 325 325 324 324 323 321 320
226 226 225 222 220 220 221 224 227 229 230 227 226 229 235 244 253 251 243 239 238 239 242 243 242 243 245 250 262 269 271 284 293 306 318 305 276 263 262 278 313 329 333 310 297 307 315 332 344 339 332 323 315 311 309 309 312 311 308 306 308 312 315 317 319 320 320 320 321 322 324 327 330 333 334 334 334 332 332 331 329 329 328 327 325
232 232 231 228 226 224 224 227 230 233 236 233 230 231 235 245 253 247 239 238 239 241 244 245 244 242 242 249 261 269 276 288 291 302 324 327 298 269 263 261 291 323 337 331 312 326 346 339 343 357 3 356 344 338 332 327 328 326 322 320 320 324 327 328 328 329 329 329 330 333 337 341 345 346 345 342 340 338 338 339 340 341 342 342 341
236 237 235 232 230 228 227 230 232 235 239 238 235 233 235 244 249 243 240 238 238 242 245 246 247 244 242 246 256 267 279 291 290 292 315 330 350 357 287 298 300 249 315 333 310 318 359 343 329 334 358 1 352 348 345 339 337 336 333 331 332 334 334 334 335 336 338 342 348 351 352 352 351 349 346 343 342 344 347 350 351 352 352 352 352
236 237 236 234 232 231 231 233 234 235 238 240 237 234 236 243 245 244 245 241 237 240 243 244 247 246 243 244 252 262 274 288 290 286 288 290 292 303 290 302 316 282 226 243 292 309 332 340 335 331 342 350 347 347 348 347 346 346 343 340 340 340 338 339 340 341 346 353 356 354 350 349 348 346 344 344 347 352 353 353 354 356 357 358 357
234 236 236 234 232 232 231 234 236 236 238 239 237 235 237 243 245 245 245 240 235 237 240 242 245 246 245 244 248 255 265 278 285 283 276 263 257 268 273 279 301 303 273 218 230 302 310 317 323 330 336 337 341 347 348 349 351 349 346 344 344 343 341 341 340 342 350 353 350 347 346 346 346 346 347 351 355 355 354 355 358 0 360 357 354
233 235 236 235 233 232 232 233 235 236 238 238 236 235 237 243 246 245 244 239 235 236 239 243 245 246 247 249 249 251 257 267 275 278 271 259 255 260 266 271 275 287 286 249 231 276 300 310 316 326 332 331 336 344 345 346 349 349 348 348 347 345 342 338 338 342 348 349 346 344 343 344 347 350 353 355 355 354 356 360 1 359 356 354 352
232 234 235 235 234 233 233 233 234 236 238 239 238 236 237 242 245 244 243 240 237 237 239 243 245 246 248 251 251 251 253 258 265 271 266 261 260 257 257 260 263 272 278 267 258 278 298 307 312 319 325 327 331 338 342 342 345 347 348 349 349 344 338 333 332 334 339 343 343 341 341 346 350 352 352 351 352 355 360 0 358 357 355 353 353
232 233 234 235 234 234 233 234 235 236 237 239 239 237 237 240 242 243 242 241 240 239 240 242 245 247 249 251 252 252 253 254 256 260 262 261 261 261 260 259 264 271 273 271 267 273 289 300 307 313 318 323 326 331 337 338 340 343 344 347 345 336 332 329 324 324 332 340 340 341 345 350 349 347 349 352 356 360 1 359 357 356 355 354 355
232 233 235 235 234 234 234 235 235 236 236 238 239 239 238 238 240 243 244 244 243 242 242 244 246 247 248 250 253 254 255 255 253 254 258 261 262 265 266 266 271 276 274 273 269 268 280 293 301 307 313 318 320 325 332 333 334 337 338 341 340 331 326 324 321 324 335 342 345 349 353 351 349 353 360 4 5 3 359 356 355 356 356 359 1
233 234 235 236 236 236 235 235 235 236 237 237 238 240 240 241 241 244 245 247 247 247 247 248 249 249 249 250 253 255 257 257 256 255 256 260 262 265 268 270 273 275 275 273 272 272 275 282 293 302 309 312 315 320 325 326 328 331 334 336 337 331 324 322 325 333 342 348 353 356 356 354 359 11 16 12 9 3 356 355 358 359 360 2 2
234 236 237 237 237 237 236 236 236 237 238 239 239 239 241 242 243 245 247 249 249 250 250 250 250 250 250 251 254 256 257 259 259 256 255 258 262 266 269 270 271 273 276 275 275 276 273 275 286 297 303 307 310 315 319 321 322 326 331 334 336 333 327 325 331 342 348 352 358 359 360 7 20 26 24 17 7 359 357 1 4 1 360 1 1
234 236 238 238 237 237 237 238 238 239 240 240 240 241 241 242 243 245 247 250 252 252 252 251 250 250 251 252 254 256 257 259 259 257 256 257 261 265 267 269 271 274 275 275 276 277 276 277 284 291 297 302 305 309 313 316 317 321 327 332 336 337 331 327 334 347 357 358 1 4 8 21 36 33 22 11 3 2 5 7 5 1 0 0 358
232 234 235 237 238 238 238 239 239 241 241 241 241 242 242 241 241 243 245 248 252 254 254 253 252 252 253 253 255 255 255 257 259 259 260 260 261 264 266 269 272 273 273 274 276 277 277 280 283 286 292 297 299 302 308 312 315 320 325 327 329 331 327 326 334 346 359 360 3 12 19 34 43 26 11 6 7 13 13 8 3 2 0 357 354
230 232 233 235 237 238 239 240 241 241 242 242 242 242 242 241 240 241 243 246 249 252 255 255 254 253 254 255 256 256 256 257 260 262 263 264 266 267 269 271 273 273 273 274 277 277 277 279 282 285 288 290 292 297 304 309 314 321 327 322 315 313 315 323 332 342 352 356 3 11 16 30 29 11 7 12 21 23 15 7 4 1 358 354 350
229 231 232 234 236 237 238 239 240 240 240 241 242 242 241 240 239 240 241 243 246 249 253 255 255 255 255 257 258 258 259 259 261 263 266 268 269 270 272 274 274 275 274 275 275 275 275 276 279 281 283 284 289 294 300 309 314 318 322 315 302 298 304 316 326 337 345 350 358 4 10 21 15 6 11 26 29 22 11 5 5 0 356 351 349
230 231 232 233 234 235 236 237 238 238 238 239 241 242 242 241 240 239 239 241 243 246 249 252 255 256 257 258 259 260 260 261 262 265 266 268 269 271 273 274 274 275 275 275 275 274 274 274 276 278 279 281 287 292 297 307 313 314 315 309 295 291 301 313 321 328 334 342 351 1 13 19 13 11 28 40 32 20 11 9 6 360 356 354 354
230 231 231 232 233 234 235 236 236 236 236 238 240 241 242 241 240 239 238 240 241 243 246 248 252 256 258 259 261 261 261 261 262 264 265 267 268 269 272 272 273 274 274 273 275 276 274 272 274 276 275 278 286 293 297 303 308 309 309 302 289 289 299 310 314 316 324 334 342 351 10 14 13 20 47 49 35 20 15 10 5 1 0 0 360
229 230 231 231 232 233 234 234 235 235 236 238 239 240 241 241 240 238 238 239 241 242 244 246 249 253 256 259 261 263 263 262 262 263 265 267 269 269 271 272 272 273 273 273 274 275 273 272 274 275 274 277 285 291 294 299 304 306 305 295 284 286 291 294 295 301 314 323 328 333 350 7 15 36 65 54 35 20 17 12 8 9 8 6 6
226 228 230 231 232 232 232 232 234 235 237 239 240 240 241 241 240 238 237 237 239 242 244 245 248 251 253 256 259 261 263 264 263 263 264 266 269 271 272 272 272 272 272 272 273 274 273 270 269 272 275 276 280 286 291 295 298 300 298 292 288 287 286 287 290 294 303 310 313 317 316 354 17 54 79 56 33 14 16 18 17 17 15 13 14
224 226 227 229 231 231 231 232 233 235 237 239 240 240 241 241 241 239 237 236 238 241 244 246 248 250 251 253 255 259 262 264 264 264 263 265 268 270 272 272 272 272 272 273 274 275 275 271 267 269 275 276 277 284 289 290 292 296 294 291 292 289 285 288 288 288 293 292 292 293 268 321 13 67 98 62 28 11 22 28 26 21 20 21 22
223 224 226 228 229 230 231 231 232 234 237 239 240 240 241 241 241 239 237 235 236 238 242 245 247 250 252 252 254 258 261 264 265 265 265 266 267 269 271 272 274 275 274 273 273 277 280 280 275 274 277 278 279 283 286 287 289 292 292 291 291 286 284 285 281 281 284 274 261 257 229 254 356 90 130 83 21 12 29 33 29 24 24 26 27
223 224 225 226 228 229 230 230 231 233 236 239 240 240 241 241 240 238 237 235 235 236 240 243 246 249 251 252 253 256 260 263 265 266 266 266 266 266 268 270 273 275 275 273 272 275 280 283 283 283 284 284 283 283 283 281 280 284 287 287 284 280 277 276 277 281 279 254 236 222 206 221 330 145 161 148 12 10 28 32 28 25 27 30 32
221 222 223 225 227 228 228 229 229 232 235 237 238 240 241 241 238 236 235 234 234 236 239 242 244 247 249 250 252 254 257 261 264 266 265 264 262 263 265 267 270 272 274 274 273 273 276 279 282 284 285 284 281 278 274 270 269 276 279 276 275 274 263 258 269 279 267 234 221 215 210 213 242 167 180 183 288 359 12 23 23 25 31 35 34
219 220 222 224 225 227 227 228 229 231 234 237 237 239 240 240 237 236 234 233 233 235 239 241 243 244 247 249 251 252 255 259 263 265 264 262 260 260 261 263 265 267 271 273 273 273 275 277 278 280 279 278 275 271 268 265 265 269 271 271 273 270 252 245 255 263 256 235 226 221 213 206 203 179 189 194 216 319 341 0 14 23 36 39 36
220 220 220 221 223 225 227 229 230 231 233 236 237 238 239 239 237 235 233 231 232 234 238 240 242 243 245 247 249 250 253 258 261 263 262 260 259 260 261 260 259 263 268 272 273 274 276 276 278 279 279 279 277 273 269 265 262 267 272 273 270 261 250 248 248 245 248 238 223 217 212 204 196 179 185 201 217 258 302 335 3 20 36 39 37